Wind_Speed
15 15 14 14 16 15 14 14 14 13 11 11 9 8 7 7 6 6 5 5 4 4 4 4 3 4 5 5 5 5 5 5 5 5 5 5 5 5 6 6 5 5 4 5 5 6 5 5 4
16 16 15 16 17 16 15 15 13 13 12 11 9 8 8 7 7 6 6 5 5 5 5 4 4 4 5 5 5 5 6 6 5 5 5 5 5 6 6 6 6 5 4 4 5 5 4 4 4
16 16 16 17 18 17 16 16 14 14 13 11 10 9 8 8 8 7 6 5 5 5 6 5 5 5 5 6 6 6 5 5 5 4 4 5 5 5 5 5 5 5 4 3 4 4 4 4 5
17 18 18 18 18 18 17 17 16 14 13 12 12 11 10 9 8 7 7 6 6 5 5 6 6 5 5 5 6 6 5 4 4 4 4 5 5 5 5 5 5 5 4 4 4 4 4 5 5
17 18 18 18 18 18 18 17 16 15 14 13 13 13 11 10 9 8 7 7 7 6 6 7 6 6 6 6 5 5 4 4 4 4 4 5 5 5 5 4 4 4 4 4 4 5 5 5 6
17 18 19 18 18 17 18 18 16 14 14 13 13 13 11 10 10 8 8 8 8 7 6 5 6 6 6 6 5 4 4 4 3 4 3 4 4 4 4 3 3 4 4 4 4 5 5 5 5
18 18 19 19 18 18 18 18 17 15 14 14 14 12 12 12 11 10 9 9 8 8 7 6 6 6 5 6 5 4 3 2 2 3 4 4 3 3 3 3 3 3 3 3 4 4 4 3 3
18 18 18 17 17 17 17 17 17 16 15 15 14 14 13 13 13 11 10 10 9 9 8 7 7 6 5 5 4 3 3 2 2 3 4 3 3 3 3 3 3 3 3 3 3 3 3 3 3
19 17 17 16 15 16 17 16 17 17 17 16 14 14 14 14 14 12 11 10 10 10 9 9 7 6 5 5 5 4 3 2 3 4 4 4 3 3 3 3 3 3 3 3 3 3 3 3 2
18 17 16 15 15 16 17 17 17 18 17 15 15 15 15 15 14 13 12 11 10 10 10 10 9 7 6 5 5 4 4 3 4 3 4 4 3 3 3 3 4 3 3 3 3 3 2 2 2
18 17 16 14 14 15 16 17 17 17 17 16 16 16 16 16 14 13 13 11 11 11 10 10 9 8 7 5 5 5 5 4 3 3 3 4 4 3 3 3 4 4 4 3 2 2 2 2 1
16 16 15 15 15 15 16 18 18 17 16 16 16 16 15 15 14 13 13 12 12 12 11 10 9 8 7 6 5 5 5 5 3 3 3 4 4 4 4 4 4 4 3 3 2 2 2 1 1
13 15 15 15 16 16 16 16 17 16 16 16 16 15 15 15 14 14 14 13 13 12 11 10 9 9 7 7 6 5 5 6 5 5 4 4 4 4 4 4 3 3 3 2 2 1 1 1 1
10 12 14 15 14 15 15 15 15 16 16 16 15 15 15 15 13 13 14 14 13 12 11 11 11 10 8 7 7 7 5 5 5 5 5 5 4 4 3 3 3 4 3 3 2 1 1 1 1
11 12 12 13 13 13 13 13 14 15 16 15 15 14 14 15 14 14 14 13 13 13 12 11 11 10 9 8 7 6 6 5 5 5 5 4 4 4 3 3 3 4 3 2 2 2 2 1 0
11 11 11 11 11 11 11 11 12 13 15 14 14 14 14 14 13 13 13 13 13 13 12 11 11 10 9 8 8 6 6 5 5 5 5 5 4 4 3 3 3 3 2 2 2 1 1 0 0
9 10 9 8 9 9 10 12 12 13 13 14 14 14 14 14 12 12 13 13 13 13 12 12 11 10 10 9 8 7 6 5 5 5 5 5 4 4 4 4 4 2 2 2 1 1 1 1 1
7 7 6 6 5 7 8 10 11 11 12 13 14 14 13 13 12 12 12 13 13 12 12 11 11 11 10 10 9 8 7 7 5 5 5 5 4 4 4 4 3 3 2 1 0 1 0 1 1
4 5 4 4 4 6 6 7 8 10 10 11 12 12 11 12 12 11 12 12 12 12 12 11 11 11 10 10 9 8 7 7 7 6 5 5 5 5 4 4 4 3 3 2 2 2 1 1 2
2 2 3 3 3 4 5 6 7 7 8 9 11 10 10 11 11 11 11 11 11 11 11 11 11 11 11 10 10 9 9 8 7 7 6 5 4 4 4 4 4 4 4 3 2 2 2 3 3
2 2 3 2 2 3 3 3 4 5 6 7 9 9 9 10 10 9 9 10 10 10 10 10 10 11 11 10 9 9 8 8 7 6 5 5 5 4 4 3 3 3 3 3 3 3 3 3 4
3 2 1 1 2 2 2 2 3 5 8 8 9 8 8 9 9 8 7 8 9 10 10 10 10 10 10 10 9 8 8 7 6 5 5 5 5 4 3 3 3 3 3 3 3 4 3 4 4
6 4 3 2 3 4 3 4 5 6 8 9 10 9 7 8 8 7 6 7 8 9 9 9 9 9 8 8 8 8 6 6 5 5 4 4 4 3 2 1 1 2 3 3 3 3 4 4 4
8 7 6 5 5 4 4 5 6 7 6 7 8 8 7 6 7 7 6 7 7 8 8 9 8 8 7 7 7 7 7 5 5 4 3 4 3 3 2 2 1 2 3 3 3 3 3 3 3
9 9 9 8 6 5 5 5 6 7 6 7 8 8 8 6 6 7 6 6 7 7 8 8 8 7 6 6 6 6 6 5 4 4 5 4 4 3 3 2 2 3 4 3 4 3 3 4 3
10 10 9 9 8 7 7 5 4 4 5 7 7 8 7 8 6 6 6 6 6 7 7 7 8 7 6 5 5 5 5 5 4 4 4 4 4 3 3 3 2 3 4 4 4 3 3 4 4
12 12 11 10 9 9 7 5 3 4 4 6 7 8 8 8 5 5 5 7 7 7 6 6 7 8 7 6 6 5 5 5 5 5 4 4 4 3 3 2 2 3 3 4 4 4 3 4 3
14 14 14 13 12 12 9 6 6 6 6 7 7 8 8 9 6 5 4 6 7 7 6 6 7 8 8 7 6 6 5 5 6 6 5 4 3 3 2 2 2 2 2 3 3 4 4 4 4
16 15 15 15 15 15 14 10 9 9 8 8 7 7 8 8 8 8 7 7 7 7 7 7 7 8 9 8 7 6 5 5 5 5 5 4 4 3 3 3 3 3 3 4 4 4 4 5 5
18 18 17 17 17 17 17 15 12 12 10 9 10 10 10 8 8 9 9 8 8 7 7 8 8 8 9 9 8 7 6 5 5 5 5 4 4 4 3 4 4 4 4 5 5 6 5 6 7
Wind_Direction
68 67 64 59 51 46 47 53 51 52 55 60 61 63 62 62 68 79 86 90 95 88 79 86 110 106 112 122 123 131 132 131 127 122 115 106 106 110 121 124 118 112 130 138 135 138 127 121 121
65 64 63 57 49 45 47 51 52 55 58 60 59 63 65 69 75 80 83 81 82 82 85 86 104 116 115 124 133 136 137 131 130 129 126 112 108 110 114 115 110 107 115 123 135 139 133 127 127
67 64 59 53 49 48 50 49 52 57 58 58 57 60 67 74 78 77 76 74 75 81 85 97 95 107 119 128 137 135 134 132 128 129 127 117 113 115 117 112 110 112 114 117 130 136 132 130 130
68 64 57 51 49 50 51 50 53 55 56 57 56 58 63 74 71 70 70 70 77 82 82 93 98 103 119 128 137 136 138 139 136 135 131 124 119 113 114 118 117 117 115 118 125 136 130 126 127
65 60 51 50 51 50 51 55 55 51 55 55 54 55 62 71 67 64 63 67 72 74 83 94 95 108 112 115 123 127 138 151 149 151 146 134 125 117 116 118 121 126 128 126 125 131 127 124 124
60 61 53 53 52 54 53 52 53 56 55 56 54 54 60 69 66 64 66 69 70 70 83 93 83 98 104 101 100 106 113 118 129 146 146 139 135 126 120 122 121 122 126 120 128 131 131 123 119
64 62 54 50 50 53 54 52 54 56 56 57 56 55 58 63 64 65 63 70 71 73 76 77 77 85 96 94 92 94 93 101 118 133 137 137 142 138 129 126 125 124 131 138 144 138 144 135 124
66 62 55 50 49 49 52 52 53 56 58 59 58 59 62 63 65 66 65 68 67 71 73 74 76 86 87 83 77 77 75 97 126 140 145 148 155 149 148 147 144 137 138 141 146 141 131 135 127
61 59 56 52 50 51 53 54 55 57 57 55 57 61 63 61 61 67 70 66 65 66 69 72 77 82 82 77 75 77 77 90 118 137 151 157 160 163 161 171 170 159 147 143 149 145 137 152 150
60 60 58 51 49 51 54 56 54 54 54 54 58 58 60 60 61 68 70 65 67 66 65 69 66 70 72 76 80 87 86 95 112 132 152 164 170 174 175 181 179 167 153 152 153 154 147 156 161
64 61 64 57 51 52 54 56 55 52 51 53 55 56 60 60 62 67 69 68 71 73 74 72 69 68 69 80 83 85 92 89 99 115 147 165 165 169 181 186 168 159 158 153 158 169 160 174 169
76 73 68 63 55 50 51 56 55 51 50 51 53 56 58 57 65 69 70 69 69 69 69 65 64 64 61 63 74 73 90 87 88 111 133 156 168 174 175 169 165 159 161 152 152 179 197 219 244
77 75 71 64 57 52 52 55 53 51 50 49 50 54 56 55 65 68 69 66 65 65 65 63 63 65 58 54 60 68 85 93 100 105 123 144 158 165 168 168 166 167 179 178 154 190 210 212 251
75 69 70 64 58 57 53 51 53 51 50 49 49 53 56 57 66 67 66 63 61 60 60 61 62 61 59 60 60 71 78 92 101 106 108 118 129 148 153 177 179 168 177 189 184 201 206 212 263
80 75 68 63 57 58 53 52 51 48 49 48 49 52 57 56 65 66 63 61 59 57 56 61 62 60 55 53 58 61 69 85 96 105 102 106 111 131 151 161 155 149 149 165 185 214 221 272 273
86 79 69 64 53 56 52 54 53 48 46 44 45 48 54 57 64 61 58 57 54 52 51 56 56 54 52 53 54 62 70 83 97 101 95 93 96 106 120 136 139 134 133 143 160 183 214 232 346
86 75 69 63 57 50 51 54 53 46 43 40 42 47 50 53 60 58 52 52 50 49 48 52 51 48 50 55 57 64 68 75 88 92 87 84 86 92 107 115 133 126 121 144 167 217 237 246 324
78 65 65 59 55 49 54 50 50 45 39 40 41 46 47 47 53 54 49 47 47 47 47 46 49 47 53 58 61 66 67 71 77 83 77 77 81 88 98 107 107 93 77 110 15 332 324 320 343
71 53 52 47 58 49 50 48 47 41 37 36 38 45 45 41 46 50 48 46 44 44 45 46 44 46 52 59 64 65 69 73 74 75 75 77 82 91 90 93 91 80 67 48 43 41 44 19 6
74 57 22 20 54 39 49 44 39 43 39 34 33 34 40 37 37 45 45 45 43 41 41 43 42 46 50 58 63 67 67 69 69 70 77 76 78 85 89 85 80 66 47 28 16 6 15 6 353
233 310 357 359 31 11 12 16 30 31 26 20 17 22 29 35 32 36 43 40 38 37 37 38 41 46 52 56 61 66 66 64 64 65 67 67 76 86 90 78 60 47 32 21 11 9 11 1 352
228 249 299 23 9 350 349 345 10 10 15 16 15 15 22 34 32 30 37 36 34 34 35 36 38 43 51 53 56 59 57 58 61 64 65 65 69 74 78 69 37 28 22 13 5 11 10 4 354
222 226 247 278 306 326 341 343 7 5 6 12 16 15 15 30 31 23 32 35 32 31 31 32 35 40 48 51 51 49 46 48 53 55 51 51 52 54 44 35 1 357 359 356 352 352 359 356 350
226 237 244 257 284 293 329 335 350 351 353 360 7 13 10 22 29 25 30 33 29 23 22 26 28 38 43 43 42 42 41 40 38 36 29 30 32 27 7 349 353 343 340 344 353 351 341 344 345
222 235 243 247 263 280 304 311 341 348 353 350 353 356 5 27 27 26 25 25 22 15 16 19 20 26 29 27 28 29 30 32 32 31 27 26 21 2 331 313 327 343 345 346 348 347 348 340 338
230 235 245 252 262 277 285 293 333 344 352 352 357 2 2 357 20 19 17 15 9 9 11 11 11 12 10 3 6 12 13 10 7 2 2 9 5 356 349 344 356 358 355 354 354 343 336 333 335
236 236 241 248 258 272 277 279 291 319 333 348 356 360 354 350 354 359 1 1 359 359 3 4 0 356 354 349 345 345 352 351 344 338 337 342 343 333 338 5 14 9 9 13 1 344 332 329 327
236 237 233 240 252 261 262 266 288 302 313 322 335 342 339 344 342 339 341 340 345 349 348 346 347 344 342 334 331 330 334 336 329 321 319 318 323 331 334 311 315 327 339 342 345 345 338 341 333
236 235 235 243 252 257 259 261 278 288 300 308 308 316 321 326 330 328 331 334 332 335 346 344 340 338 337 338 329 322 321 324 321 317 317 312 320 325 319 313 302 303 319 328 333 338 330 328 326
237 238 240 244 250 252 257 259 266 277 283 294 300 303 305 315 318 319 324 329 323 323 328 328 330 334 335 336 338 329 321 325 325 320 321 308 301 295 299 303 300 300 306 313 318 323 324 317 317
Height
5890 5889 5889 5888 5887 5885 5883 5883 5882 5882 5882 5881 5881 5880 5880 5880 5881 5883 5881 5879 5879 5879 5879 5879 5879 5880 5880 5881 5881 5882 5882 5883 5883 5883 5883 5883 5884 5883 5883 5883 5884 5883 5883 5883 5883 5883 5884 5884 5884
5892 5891 5891 5890 5887 5886 5885 5884 5884 5884 5883 5882 5881 5881 5880 5880 5880 5880 5880 5880 5880 5880 5880 5880 5880 5880 5881 5881 5882 5882 5883 5883 5884 5884 5884 5884 5884 5884 5884 5884 5885 5884 5884 5884 5885 5884 5884 5885 5885
5894 5892 5893 5890 5888 5887 5887 5886 5886 5885 5884 5883 5883 5882 5881 5881 5881 5881 5881 5880 5880 5880 5880 5880 5881 5881 5881 5882 5882 5883 5884 5884 5884 5885 5884 5885 5885 5885 5885 5885 5885 5886 5886 5886 5886 5886 5885 5885 5885
5896 5895 5894 5892 5890 5889 5888 5888 5887 5886 5885 5884 5884 5883 5882 5882 5881 5881 5881 5881 5880 5880 5881 5881 5881 5881 5882 5882 5883 5883 5884 5884 5885 5885 5885 5885 5885 5886 5886 5886 5886 5886 5886 5886 5886 5886 5886 5886 5886
5898 5897 5895 5893 5892 5891 5890 5889 5889 5888 5886 5885 5885 5884 5883 5883 5881 5881 5881 5881 5880 5881 5881 5881 5881 5882 5882 5883 5883 5884 5884 5884 5885 5885 5885 5885 5886 5886 5887 5887 5887 5887 5887 5887 5888 5888 5888 5887 5887
5900 5898 5897 5896 5895 5894 5893 5892 5891 5890 5888 5887 5886 5885 5884 5884 5883 5882 5881 5881 5881 5881 5882 5882 5882 5882 5883 5883 5884 5884 5884 5884 5885 5885 5885 5886 5886 5887 5887 5888 5888 5888 5887 5888 5889 5889 5889 5888 5888
5902 5900 5899 5898 5897 5896 5895 5894 5893 5892 5890 5889 5888 5887 5885 5884 5884 5883 5882 5883 5883 5883 5883 5883 5883 5883 5883 5884 5884 5884 5884 5884 5884 5885 5885 5886 5886 5887 5888 5888 5889 5889 5889 5889 5889 5890 5890 5889 5889
5903 5903 5901 5901 5900 5899 5898 5896 5895 5894 5892 5891 5889 5888 5887 5886 5885 5884 5884 5884 5884 5884 5884 5883 5884 5884 5884 5884 5884 5884 5884 5884 5884 5885 5885 5886 5886 5887 5888 5888 5889 5889 5889 5889 5889 5890 5890 5890 5890
5905 5906 5904 5903 5903 5902 5900 5899 5898 5896 5894 5893 5891 5890 5889 5887 5886 5886 5885 5885 5885 5885 5885 5884 5885 5885 5885 5884 5884 5884 5884 5884 5884 5885 5885 5885 5886 5887 5887 5888 5889 5889 5889 5889 5890 5890 5890 5890 5890
5907 5906 5906 5905 5905 5904 5902 5901 5900 5898 5897 5895 5894 5893 5891 5889 5889 5888 5888 5887 5887 5886 5886 5886 5885 5885 5885 5885 5884 5884 5884 5884 5884 5885 5885 5885 5886 5886 5887 5888 5888 5889 5889 5889 5889 5890 5890 5890 5890
5908 5908 5908 5907 5907 5906 5905 5904 5902 5900 5899 5898 5896 5895 5893 5892 5891 5890 5890 5889 5889 5888 5888 5887 5886 5886 5885 5885 5884 5884 5884 5884 5884 5885 5885 5885 5886 5886 5887 5888 5888 5889 5889 5889 5890 5890 5890 5890 5890
5911 5911 5910 5909 5909 5908 5907 5906 5905 5904 5902 5900 5898 5897 5895 5894 5893 5892 5892 5891 5890 5890 5889 5888 5887 5886 5886 5885 5884 5884 5884 5884 5885 5885 5885 5885 5886 5887 5887 5888 5888 5889 5889 5889 5889 5889 5889 5890 5890
5913 5912 5912 5911 5911 5910 5909 5908 5907 5906 5904 5902 5901 5900 5898 5897 5896 5895 5894 5893 5892 5891 5890 5889 5888 5887 5886 5885 5885 5884 5884 5885 5885 5885 5885 5885 5886 5886 5887 5888 5888 5889 5889 5889 5889 5889 5889 5889 5889
5915 5915 5914 5913 5913 5912 5912 5911 5910 5908 5906 5905 5904 5903 5901 5900 5898 5897 5896 5895 5894 5893 5892 5890 5889 5888 5887 5886 5886 5885 5885 5885 5885 5885 5885 5885 5886 5887 5887 5888 5888 5889 5889 5889 5889 5889 5889 5889 5889
5917 5917 5916 5916 5915 5914 5914 5913 5912 5910 5909 5908 5906 5905 5903 5902 5900 5899 5898 5897 5896 5895 5893 5892 5891 5889 5888 5887 5886 5886 5885 5885 5885 5885 5886 5886 5886 5887 5887 5888 5888 5888 5888 5889 5889 5889 5889 5889 5888
5919 5919 5918 5917 5917 5916 5917 5915 5914 5912 5911 5910 5909 5907 5905 5904 5902 5901 5900 5899 5898 5896 5895 5894 5892 5891 5889 5888 5887 5886 5885 5885 5886 5886 5886 5887 5887 5887 5887 5888 5888 5888 5888 5888 5889 5889 5889 5888 5888
5920 5919 5919 5919 5918 5918 5918 5917 5915 5914 5913 5912 5911 5909 5907 5906 5904 5903 5902 5901 5899 5898 5897 5895 5893 5892 5890 5889 5887 5887 5886 5886 5886 5887 5887 5887 5887 5887 5887 5887 5888 5888 5888 5888 5888 5888 5888 5888 5887
5921 5920 5920 5920 5919 5919 5918 5918 5917 5915 5915 5913 5912 5911 5909 5908 5906 5905 5903 5902 5901 5900 5898 5896 5895 5893 5891 5890 5889 5888 5888 5887 5887 5887 5887 5887 5888 5888 5888 5888 5888 5888 5888 5887 5887 5887 5887 5887 5886
5921 5921 5920 5920 5919 5919 5918 5918 5918 5917 5916 5915 5914 5913 5911 5910 5908 5906 5905 5904 5902 5901 5900 5898 5896 5894 5892 5891 5890 5889 5889 5889 5889 5888 5888 5888 5888 5888 5888 5888 5888 5888 5888 5887 5887 5886 5886 5886 5885
5921 5921 5921 5920 5920 5919 5919 5918 5918 5917 5917 5916 5915 5914 5912 5911 5909 5908 5906 5905 5904 5902 5901 5899 5898 5896 5894 5893 5892 5891 5890 5890 5890 5889 5889 5889 5889 5889 5889 5889 5888 5888 5888 5887 5887 5886 5885 5885 5885
5920 5920 5920 5920 5919 5919 5919 5919 5918 5918 5917 5916 5915 5914 5913 5912 5910 5909 5907 5906 5905 5904 5902 5901 5899 5897 5895 5894 5893 5892 5892 5891 5891 5890 5890 5890 5889 5889 5889 5889 5889 5888 5888 5887 5886 5886 5885 5885 5884
5919 5919 5920 5919 5919 5919 5920 5919 5919 5918 5917 5916 5915 5914 5913 5912 5911 5910 5908 5907 5906 5905 5903 5901 5900 5898 5896 5895 5894 5894 5893 5893 5892 5891 5891 5890 5889 5889 5889 5889 5889 5888 5887 5887 5886 5885 5884 5884 5883
5918 5919 5919 5919 5919 5919 5919 5919 5919 5917 5916 5916 5915 5914 5913 5912 5911 5910 5909 5908 5907 5906 5904 5902 5900 5899 5898 5896 5895 5895 5894 5893 5893 5892 5891 5891 5890 5889 5889 5889 5888 5888 5887 5886 5885 5884 5884 5883 5882
5917 5918 5918 5918 5918 5918 5918 5918 5918 5917 5916 5915 5915 5914 5913 5912 5911 5910 5909 5908 5907 5906 5904 5903 5901 5900 5898 5897 5896 5895 5894 5894 5893 5892 5891 5891 5890 5889 5888 5888 5887 5887 5886 5885 5884 5883 5883 5882 5881
5915 5916 5917 5917 5917 5917 5918 5917 5918 5916 5915 5915 5914 5913 5912 5911 5911 5910 5909 5909 5907 5906 5904 5903 5901 5900 5899 5898 5896 5895 5894 5893 5893 5892 5891 5890 5889 5889 5888 5887 5886 5886 5885 5884 5883 5882 5882 5881 5880
5913 5915 5915 5916 5916 5916 5915 5915 5917 5916 5915 5914 5913 5913 5912 5911 5911 5910 5909 5908 5907 5906 5904 5903 5901 5900 5899 5897 5896 5895 5894 5893 5892 5891 5891 5890 5889 5888 5887 5886 5886 5885 5884 5883 5882 5882 5881 5880 5879
5910 5911 5913 5914 5913 5913 5913 5914 5914 5914 5913 5913 5913 5912 5911 5911 5910 5909 5908 5907 5906 5905 5904 5902 5901 5900 5898 5897 5895 5894 5893 5892 5891 5890 5890 5889 5888 5887 5887 5886 5885 5884 5883 5882 5882 5881 5880 5879 5878
5908 5909 5910 5910 5910 5910 5911 5911 5912 5911 5911 5912 5911 5911 5910 5910 5909 5908 5907 5906 5905 5904 5903 5901 5900 5899 5897 5896 5895 5893 5892 5891 5890 5889 5889 5888 5887 5886 5885 5885 5884 5883 5882 5881 5881 5879 5878 5877 5877
5904 5906 5906 5907 5908 5908 5908 5912 5910 5910 5909 5909 5909 5909 5909 5908 5907 5906 5906 5905 5904 5903 5902 5900 5899 5898 5896 5895 5893 5892 5891 5890 5889 5888 5887 5886 5886 5885 5884 5884 5883 5882 5881 5880 5880 5878 5877 5876 5876
5899 5901 5902 5904 5904 5904 5905 5909 5907 5907 5907 5907 5907 5907 5907 5906 5905 5905 5904 5903 5902 5901 5900 5899 5898 5897 5895 5894 5892 5891 5889 5888 5888 5886 5885 5884 5884 5883 5883 5882 5881 5881 5880 5879 5878 5877 5876 5875 5874